Regional Weather Roundup
Issued by NWS Charleston, SC

Current Version | Previous Version | Text Only | Print | Product List | Glossary Off
Versions: 1 2 3 4 5 6 7 8 9 10 11 12 13 14 15 16 17 18 19 20 21 22 23 24 25 26 27 28 29 30 31 32 33 34 35 36 37 38 39 40 41 42 43 44 45 46 47 48 49 50
000 ASUS42 KCHS 270712 RWRCHS REGIONAL WEATHER ROUNDUP NATIONAL WEATHER SERVICE CHARLESTON SC 300 AM EDT TUE JUN 27 2017 NOTE: "FAIR" INDICATES FEW OR NO CLOUDS BELOW 12,000 FEET WITH NO SIGNIFICANT WEATHER AND/OR OBSTRUCTIONS TO VISIBILITY. NOT ALL STATIONS ARE QUALITY CONTROLLED. USE DATA WITH CAUTION... ESPECIALLY DEWPOINT OBSERVATIONS. SCZ027-030-031-034>040-042>050-270800- ...SOUTHEAST SOUTH CAROLINA... CITY SKY/WX TMP DP RH WIND PRES REMARKS N CHARLESTON CLOUDY 69 66 90 N5 30.02F WATERFRONT PRK N/A 78 70 76 VRB2 30.00F JOHNS ISLAND FAIR 72 70 94 CALM 30.02S PINOPOLIS N/A 73 64 73 CALM 29.95F MONCKS CORNER FAIR 66 64 94 CALM 30.03S SUMMERVILLE FAIR 68 66 94 CALM 30.04S BEAUFORT MCAS PTCLDY 74 73 97 CALM 30.03S BEAUFORT ARPT FAIR 73 72 94 CALM 30.02S HILTON HEAD IS CLOUDY 75 73 94 CALM 30.03S WALTERBORO SUNNY 68 66 94 CALM 30.04S ALLENDALE FAIR 70 68 94 CALM 30.02F ...SOUTHERN MIDLANDS AND PEE DEE... CITY SKY/WX TMP DP RH WIND PRES REMARKS GEORGETOWN FAIR 64 64 100 CALM 30.04S KINGSTREE FAIR 64 63 94 CALM 30.03F ORANGEBURG CLEAR 66 65 96 CALM 30.04S BARNWELL FAIR 68 66 94 CALM 30.04S AIKEN FAIR 64 61 88 CALM 30.08F MANNING FAIR 63 63 100 CALM 30.03F COLUMBIA PTCLDY 68 62 81 CALM 30.03S SUMTER PTCLDY 70 61 73 CALM 30.01S FLORENCE CLEAR 68 64 87 CALM 30.03S MYRTLE BEACH CLOUDY 70 66 87 CALM 30.04S N MYRTLE BEACH CLEAR 66 65 96 CALM 30.02S $$ GAZ063-065-086>088-099>101-113>116-118-119-134>141-150-270800- ...SOUTHEAST GEORGIA... CITY SKY/WX TMP DP RH WIND PRES REMARKS SAVANNAH ARPT CLOUDY 74 72 93 CALM 30.03S HUNTER AAF CLOUDY 75 73 94 CALM 30.00S FORT STEWART FOG 73 71 95 CALM 30.00S VSB 3/4 STATESBORO MOCLDY 73 32 22 CALM 30.03S SYLVANIA PTSUNNY 72 72 100 CALM 30.04F CLAXTON FAIR 70 69 99 CALM 30.03S FOG ...CSRA...CENTRAL AND FAR SOUTHEAST GEORGIA... CITY SKY/WX TMP DP RH WIND PRES REMARKS THOMSON PTCLDY 64 63 95 CALM 30.10F AUGUSTA-BUSH CLEAR 66 65 96 CALM 30.03F AUGUSTA-DANIEL CLEAR 75 60 59 CALM 30.04F SWAINSBORO FAIR 68 68 100 CALM 30.05S VIDALIA PTCLDY 73 72 94 CALM 30.04S EASTMAN FAIR 69 69 100 CALM 30.06F HAZLEHURST FAIR 73 73 100 CALM 30.02S ALMA CLOUDY 73 70 90 CALM 30.02F WAYCROSS CLOUDY 74 74 100 CALM 30.02F JESUP FAIR 72 70 94 CALM 30.03S BAXLEY MOCLDY 72 72 100 CALM 30.02F BRUNSWICK FOG 73 73 100 CALM 30.02F VSB 1/2 SAINT SIMONS CLEAR 76 75 97 CALM 30.01F $$ SCZ027-028-034-036>038-045-046-048>050-GAZ119-141-270800- ...LAKE AND SUPPLEMENTAL COASTAL OBSERVATIONS... STATION/POSITION TIME TEMP WIND PRES WAVE SWELL AIR SEA DIR/SP/G HT/PER HT/PER/DIR (UTC) (F) (DEG/KT/KT) (MB) (FT/S) (FT/S/D) WINYAH BAY 0545 69 300/ 2 1017.0 LAKE MURRAY 0620 75 290/ 2/ 5 1015.9 ACE BASIN NERRS 0545 72 CALM 1017.0 FORT PULASKI 0648 78 84 CALM / 1 1016.8R SAPELO ISLAND 0600 75 CALM 1016.0 $$ ANZ835-935-AMZ111-154-330-350-352-354-370-450-454-472-270800- ...C-MAN AND BUOY OBSERVATIONS... STATION/POSITION TIME TEMP WIND PRES WAVE SWELL AIR SEA DIR/SP/G HT/PER HT/PER/DIR (UTC) (F) (DEG/KT/KT) (MB) (FT/S) (FT/S/D) BUOY 41004 0650 79 81 60/ 6/ 6 1015.8F 2/ 8 2/120/ 8 BUOY 41008 0650 79 82 190/ 2/ 4 1016.0F 2/ 5 2/ 50/ 5 FOLLY BEACH CMAN 0600 80 90/ 4/ 5 1017.2F CAPERS NEARSHORE 0608 85 83 100/ 6/ 8 1016.5F FRIPP NEARSHORE 0608 79 83 100/ 4/ 6 1016.1F STATION/POSITION TIME TEMP WIND PRES WAVE SWELL AIR SEA DIR/SP/G HT/PER HT/PER/DIR (UTC) (F) (DEG/KT/KT) (MB) (FT/S) (FT/S/D) 5E ST. MARYS GA 0630 80 N/A 1/ 8 FRYING PAN BUOY 0650 78 80 30/ 4/ 6 1015.9F 2/ 8 2/130/ 8 BUOY 41025 0650 77 81 360/ 4/ 6 1016.2F 2/ 8 2/140/ 8 CAPE LOOKOUT NC 0600 76 CALM 1016.2F BUOY 41002 0550 80 80 170/ 12/ 14 1016.1 3/ 6 2/110/ 7 BUOY 41010 0650 83 83 160/ 14/ 17 1016.0F 3/ 7 2/130/ 7 ST AUGUSTINE FL 0700 75 78 CALM / 1 1016.0F $$

USA.gov is the U.S. government's official web portal to all federal, state and local government web resources and services.